Weather History for Bonilla Island, BC

Change the Weather History Date:

Thursday, January 10, 2013

  Actual Average Record
Temperature  
Mean Temperature 37 °F -  
Max Temperature 39 °F - - ()
Min Temperature 35 °F - - ()
Degree Days  
Heating Degree Days 28    
Moisture  
Dew Point 30 °F    
Average Humidity 73    
Maximum Humidity 80    
Minimum Humidity 63    
Precipitation  
Precipitation 0.00 in - - ()
Sea Level Pressure  
Sea Level Pressure 30.22 in    
Wind  
Wind Speed 13 mph ()    
Max Wind Speed 28 mph    
Max Gust Speed 32 mph    
T = Trace of Precipitation, MM = Missing Value Source: Averaged Metar Reports

Daily Weather History Graph

Daily Weather History Graph

Search for Another Location

Airport:

Trip Planner

Search our weather history database for the weather conditions in past years. The results will help you decide how hot, cold, wet, or windy it might be!

Date:

Astronomy

Jan. 10, 2013 Rise Set
Actual Time 8:54 AM PST 4:46 PM PST
Civil Twilight 8:12 AM PST 5:28 PM PST
Nautical Twilight 7:28 AM PST 6:12 PM PST
Astronomical Twilight 6:46 AM PST 6:54 PM PST
Moon 7:39 AM PST (1/10) 4:04 PM PST (1/10)
Length of Visible Light 9h 15m
Length of Day
7h 52m
Waning Crescent, 1% of the Moon is Illuminated
Jan 10
Waning Crescent
Jan 11
New
Jan 18
First Quarter
Jan 26
Full
Feb 3
Last Quarter

Hourly Weather History & Observations

Time (PST) Temp. Windchill Dew Point Humidity Pressure Visibility Wind Dir Wind Speed Gust Speed Precip Events Conditions
12:00 AM 39.7 °F 28.5 °F 31.1 °F 71% 30.11 in - North 27.6 mph - N/A   Unknown
1:00 AM 39.7 °F 28.8 °F 31.6 °F 73% 30.14 in - North 26.5 mph - N/A   Unknown
2:00 AM 39.4 °F 28.3 °F 30.0 °F 69% 30.17 in - North 26.5 mph 32.2 mph N/A   Unknown
3:00 AM 39.6 °F 28.7 °F 30.6 °F 70% 30.18 in - North 25.3 mph - N/A   Unknown
4:00 AM 38 °F - 31 °F 69% 30.19 in - North 20.7 mph - -  
5:00 AM 38.3 °F 29.0 °F 31.5 °F 76% 30.20 in - North 17.3 mph - N/A   Unknown
7:00 AM 37.0 °F 28.9 °F 30.4 °F 77% 30.21 in - NNE 12.7 mph - N/A   Unknown
8:00 AM 37.6 °F 30.0 °F 31.3 °F 78% 30.23 in - North 11.5 mph - N/A   Unknown
9:00 AM 36.9 °F 31.4 °F 30.7 °F 79% 30.23 in - NE 6.9 mph - N/A   Unknown
10:00 AM 38 °F - 30 °F 65% 30.24 in - NNE 6.9 mph - -  
10:00 AM 37.6 °F 32.3 °F 30.4 °F 75% 30.24 in - NNE 6.9 mph - N/A   Unknown
11:00 AM 37.6 °F 33.1 °F 29.8 °F 74% 30.25 in - NE 5.8 mph - N/A   Unknown
12:00 PM 37.4 °F 34.9 °F 29.3 °F 73% 30.23 in - NE 3.5 mph - N/A   Unknown
1:00 PM 38.1 °F 33.7 °F 29.5 °F 71% 30.22 in - NNE 5.8 mph - N/A   Unknown
2:00 PM 38.5 °F 34.1 °F 30.4 °F 73% 30.22 in - NNE 5.8 mph - N/A   Unknown
3:00 PM 38.5 °F 34.1 °F 30.9 °F 74% 30.22 in - NNE 5.8 mph - N/A   Unknown
4:00 PM 39 °F - 31 °F 63% 30.22 in - NNE 5.8 mph - -  
4:00 PM 39.0 °F 34.8 °F 30.9 °F 73% 30.22 in - NNE 5.8 mph - N/A   Unknown
5:00 PM 36.0 °F - 29.3 °F 77% 30.22 in - East 2.3 mph - N/A   Unknown
6:00 PM 35.6 °F 32.8 °F 29.3 °F 78% 30.24 in - ENE 3.5 mph - N/A   Unknown
7:00 PM 37.2 °F 33.6 °F 31.5 °F 80% 30.25 in - NNE 4.6 mph - N/A   Unknown
8:00 PM 38.1 °F 32.3 °F 29.8 °F 72% 30.25 in - North 8.1 mph - N/A   Unknown
9:00 PM 38.5 °F 31.6 °F 30.4 °F 73% 30.26 in - North 10.4 mph - N/A   Unknown
11:00 PM 36.3 °F 32.5 °F 30.2 °F 78% 30.27 in - NE 4.6 mph - N/A   Unknown